Find Starlink 31645

NORAD ID: 59264 Int'l Des: 2024-050 Owner: SPXS Country: US Constellation: starlink operational
LEOCIRCULAR

現在のビュー

3D地球を読み込み中...

About Starlink 31645

Starlink 31645 (NORAD 59264) is a starlink constellation satellite (v2 mini) launched Mar 19, 2024 by SPXS of US. It operates in LEO, CIRCULAR orbit with a mass of 730.00 kg.

Starlink 31645について

説明を読み込み中...

次回通過

Passes for default location (London). Set your location on the main map for personalized predictions.

高度履歴

Loading altitude history...

軌道要素

1 59264U 24050L 26177.87475581 .00025496 00000-0 87040-3 0 9993
2 59264 53.1599 33.9574 0000979 84.5584 275.5528 15.30184612127263
Epoch: Jun 26, 2026 • Age: 15 hours

現在のステータス

高度 476.0 km
速度 7.63 km/s
衛星直下点 0.58°N, 116.81°E
打ち上げ日 Mar 19, 2024
運用期間 2.2 years
タイプ internet

技術仕様

分類 Payload
質量 730.00 kg
乾燥質量 700.00 kg
総質量 730.00 kg
長さ 0.30 m
直径 4.10 m
スパン 29.00 m
形状 Box + pan
製造者 SPXS
バスタイプ Starlink V2M
フェーズステータス In Orbit
所有者/国 SPXS/US

Most Searched